| time (UTC) | temp F | wind direction | speed knots | gust knots | rain 1hr in | rain 24hr in | rain mn in | humidity % | barometer mb |
| 20260509175604 | 86 | 246 | 0.9 | 3.5 | 0.00 | 0.00 | 0.61 | 64 | 1008.7 |
| 20260509175104 | 85 | 135 | 1.7 | 4.3 | 0.00 | 0.00 | 0.61 | 62 | 1008.6 |
| 20260509174604 | 84 | 219 | 1.7 | 5.2 | 0.00 | 0.00 | 0.61 | 63 | 1008.6 |
| 20260509174104 | 84 | 277 | 1.7 | 5.2 | 0.00 | 0.00 | 0.61 | 65 | 1008.7 |
| 20260509173604 | 84 | 111 | 1.7 | 3.5 | 0.00 | 0.00 | 0.61 | 65 | 1008.6 |
| 20260509172101 | 83 | 186 | 1.7 | 3.5 | 0.00 | 0.00 | 0.61 | 69 | 1008.7 |
| 20260509171559 | 82 | 240 | 1.7 | 4.3 | 0.00 | 0.00 | 0.61 | 70 | 1008.8 |
| 20260509171059 | 83 | 269 | 1.7 | 5.2 | 0.00 | 0.00 | 0.61 | 69 | 1008.9 |
| 20260509170100 | 82 | 177 | 2.6 | 6.1 | 0.00 | 0.00 | 0.61 | 72 | 1009.1 |
| 20260509165059 | 81 | 315 | 1.7 | 5.2 | 0.00 | 0.00 | 0.61 | 70 | 1009.1 |
| 20260509163559 | 80 | 333 | 1.7 | 5.2 | 0.00 | 0.00 | 0.61 | 75 | 1009.3 |
| 20260509163059 | 79 | 310 | 2.6 | 5.2 | 0.00 | 0.00 | 0.61 | 74 | 1009.4 |
| 20260509161554 | 78 | 311 | 2.6 | 5.2 | 0.00 | 0.00 | 0.61 | 79 | 1009.6 |
| 20260509161050 | 78 | 321 | 2.6 | 5.2 | 0.00 | 0.00 | 0.61 | 79 | 1009.4 |
| 20260509160051 | 77 | 270 | 2.6 | 5.2 | 0.00 | 0.00 | 0.61 | 79 | 1009.6 |
| 20260509155551 | 77 | 309 | 1.7 | 4.3 | 0.00 | 0.00 | 0.61 | 79 | 1009.5 |
| 20260509155051 | 76 | 0 | 1.7 | 3.5 | 0.00 | 0.00 | 0.61 | 83 | 1009.4 |
| 20260509154548 | 76 | 270 | 1.7 | 3.5 | 0.00 | 0.00 | 0.61 | 83 | 1009.3 |
| 20260509154048 | 75 | 298 | 1.7 | 3.5 | 0.00 | 0.00 | 0.61 | 84 | 1009.5 |
| 20260509153548 | 75 | 253 | 1.7 | 2.6 | 0.00 | 0.00 | 0.61 | 87 | 1009.6 |
| 20260509153045 | 74 | 301 | 1.7 | 3.5 | 0.00 | 0.00 | 0.61 | 88 | 1009.6 |
| 20260509152547 | 74 | 274 | 1.7 | 3.5 | 0.00 | 0.00 | 0.61 | 90 | 1009.5 |
| 20260509152050 | 73 | 304 | 0.9 | 1.7 | 0.00 | 0.00 | 0.61 | 93 | 1009.2 |
| 20260509151547 | 73 | 317 | 0.9 | 2.6 | 0.00 | 0.00 | 0.61 | 95 | 1008.9 |
| 20260509151044 | 72 | 316 | 0.9 | 2.6 | 0.00 | 0.00 | 0.61 | 95 | 1008.8 |
| 20260509150544 | 72 | 316 | 0.9 | 1.7 | 0.00 | 0.00 | 0.61 | 95 | 1008.7 |
| 20260509150044 | 72 | 316 | 0.9 | 1.7 | 0.00 | 0.00 | 0.61 | 96 | 1008.7 |
| 20260509145544 | 71 | 316 | 0.9 | 1.7 | 0.00 | 0.00 | 0.61 | 96 | 1008.8 |
| 20260509145044 | 71 | 316 | 0.9 | 1.7 | 0.00 | 0.00 | 0.61 | 96 | 1008.8 |
| 20260509144544 | 71 | 316 | 0.9 | 1.7 | 0.00 | 0.00 | 0.61 | 96 | 1008.9 |
| 20260509143544 | 71 | 324 | 1.7 | 1.7 | 0.00 | 0.00 | 0.61 | 96 | 1009.1 |
| 20260509143044 | 71 | 315 | 1.7 | 1.7 | 0.00 | 0.00 | 0.61 | 95 | 1009.2 |
| 20260509142544 | 71 | 319 | 1.7 | 1.7 | 0.00 | 0.00 | 0.61 | 95 | 1009.5 |
| 20260509141545 | 71 | 329 | 1.7 | 4.3 | 0.00 | 0.00 | 0.61 | 95 | 1009.3 |
| 20260509141044 | 71 | 312 | 2.6 | 4.3 | 0.00 | 0.00 | 0.61 | 94 | 1008.9 |
| 20260509140534 | 71 | 119 | 2.6 | 4.3 | 0.00 | 0.00 | 0.61 | 95 | 1008.5 |
| 20260509135531 | 71 | 145 | 3.5 | 4.3 | 0.00 | 0.00 | 0.61 | 95 | 1007.9 |
| 20260509135022 | 70 | 128 | 3.5 | 4.3 | 0.00 | 0.00 | 0.61 | 95 | 1008.3 |
| 20260509134526 | 70 | 140 | 3.5 | 4.3 | 0.00 | 0.00 | 0.61 | 95 | 1008.5 |
| 20260509134018 | 70 | 146 | 3.5 | 4.3 | 0.00 | 0.00 | 0.61 | 95 | 1008.6 |
| 20260509133526 | 70 | 131 | 3.5 | 4.3 | 0.00 | 0.00 | 0.61 | 95 | 1009.0 |
| 20260509133018 | 70 | 323 | 3.5 | 4.3 | 0.00 | 0.00 | 0.61 | 95 | 1009.1 |
| 20260509132526 | 70 | 144 | 3.5 | 4.3 | 0.00 | 0.00 | 0.61 | 95 | 1009.1 |
| 20260509132019 | 70 | 132 | 3.5 | 4.3 | 0.00 | 0.00 | 0.61 | 94 | 1008.0 |
| 20260509131539 | 70 | 138 | 3.5 | 4.3 | 0.00 | 0.00 | 0.61 | 95 | 1008.0 |
| 20260509130523 | 70 | 129 | 3.5 | 3.5 | 0.00 | 0.00 | 0.61 | 93 | 1007.6 |
| 20260509130035 | 70 | 135 | 3.5 | 4.3 | 0.10 | 0.61 | 0.61 | 94 | 1007.6 |
| 20260509125534 | 70 | 133 | 3.5 | 4.3 | 0.12 | 0.61 | 0.61 | 93 | 1007.6 |
| 20260509125032 | 70 | 147 | 3.5 | 7.0 | 0.13 | 0.61 | 0.61 | 93 | 1008.0 |
| 20260509124530 | 70 | 129 | 4.3 | 8.7 | 0.14 | 0.61 | 0.61 | 93 | 1007.5 |
| 20260509124029 | 70 | 124 | 5.2 | 8.7 | 0.16 | 0.61 | 0.61 | 94 | 1007.5 |
| 20260509123531 | 69 | 132 | 5.2 | 11.3 | 0.17 | 0.61 | 0.61 | 95 | 1006.8 |
| 20260509123029 | 69 | 132 | 7.0 | 11.3 | 0.17 | 0.61 | 0.61 | 95 | 1006.3 |
| 20260509122530 | 69 | 133 | 7.0 | 11.3 | 0.19 | 0.60 | 0.61 | 95 | 1006.0 |
| 20260509122030 | 70 | 134 | 6.1 | 8.7 | 0.20 | 0.59 | 0.59 | 96 | 1006.1 |
| 20260509121528 | 71 | 132 | 7.0 | 8.7 | 0.20 | 0.57 | 0.57 | 96 | 1007.3 |
| 20260509120527 | 72 | 131 | 6.1 | 9.6 | 0.16 | 0.53 | 0.53 | 97 | 1008.1 |
| 20260509115024 | 70 | 113 | 5.2 | 8.7 | 0.11 | 0.48 | 0.48 | 97 | 1008.1 |
| 20260509114528 | 70 | 124 | 4.3 | 7.0 | 0.11 | 0.47 | 0.47 | 96 | 1008.7 |
| 20260509113528 | 71 | 140 | 4.3 | 6.1 | 0.12 | 0.44 | 0.44 | 96 | 1009.3 |
| 20260509112528 | 71 | 161 | 5.2 | 6.1 | 0.13 | 0.41 | 0.41 | 95 | 1009.5 |
| 20260509112023 | 71 | 146 | 4.3 | 6.1 | 0.14 | 0.39 | 0.39 | 95 | 1009.5 |
| 20260509111528 | 71 | 151 | 4.3 | 7.0 | 0.15 | 0.38 | 0.38 | 96 | 1009.0 |
| 20260509111025 | 71 | 124 | 4.3 | 7.0 | 0.17 | 0.37 | 0.37 | 96 | 1008.9 |
| 20260509110529 | 72 | 143 | 3.5 | 7.0 | 0.19 | 0.37 | 0.37 | 96 | 1009.0 |
| 20260509110024 | 72 | 142 | 4.3 | 7.0 | 0.21 | 0.37 | 0.37 | 96 | 1009.0 |
| 20260509105018 | 72 | 128 | 4.3 | 6.1 | 0.24 | 0.37 | 0.37 | 96 | 1009.1 |
| 20260509104524 | 73 | 114 | 4.3 | 6.1 | 0.26 | 0.36 | 0.36 | 96 | 1009.1 |
| 20260509104020 | 73 | 140 | 3.5 | 6.1 | 0.26 | 0.35 | 0.35 | 96 | 1009.4 |
| 20260509103021 | 72 | 145 | 3.5 | 5.2 | 0.27 | 0.30 | 0.30 | 96 | 1009.5 |
| 20260509101510 | 72 | 145 | 1.7 | 3.5 | 0.22 | 0.22 | 0.22 | 96 | 1009.9 |
| 20260509101006 | 72 | 148 | 1.7 | 2.6 | 0.20 | 0.20 | 0.20 | 96 | 1009.8 |
| 20260509095959 | 73 | 146 | 2.6 | 5.2 | 0.15 | 0.16 | 0.16 | 96 | 1009.9 |
| 20260509095450 | 75 | 164 | 3.5 | 6.1 | 0.13 | 0.14 | 0.14 | 96 | 1010.1 |
| 20260509094949 | 76 | 161 | 3.5 | 6.1 | 0.12 | 0.13 | 0.13 | 97 | 1010.1 |
| 20260509094449 | 76 | 161 | 3.5 | 6.1 | 0.10 | 0.11 | 0.11 | 97 | 1010.0 |
| 20260509093948 | 76 | 109 | 2.6 | 4.3 | 0.08 | 0.08 | 0.08 | 97 | 1010.1 |
| 20260509093452 | 76 | 162 | 2.6 | 4.3 | 0.06 | 0.07 | 0.07 | 96 | 1010.1 |
| 20260509092947 | 76 | 190 | 2.6 | 4.3 | 0.03 | 0.03 | 0.03 | 96 | 1009.9 |
| 20260509091947 | 77 | 167 | 2.6 | 3.5 | 0.01 | 0.01 | 0.01 | 94 | 1008.9 |
| 20260509091452 | 77 | 167 | 2.6 | 3.5 | 0.00 | 0.00 | 0.00 | 94 | 1008.0 |
| 20260509090447 | 77 | 137 | 2.6 | 4.3 | 0.00 | 0.00 | 0.00 | 94 | 1007.2 |
| 20260509085946 | 77 | 129 | 2.6 | 3.5 | 0.00 | 0.00 | 0.00 | 94 | 1006.8 |
| 20260509084937 | 76 | 147 | 3.5 | 5.2 | 0.00 | 0.00 | 0.00 | 95 | 1006.9 |
| 20260509084437 | 76 | 162 | 3.5 | 5.2 | 0.00 | 0.00 | 0.00 | 95 | 1006.5 |
| 20260509083937 | 77 | 158 | 3.5 | 5.2 | 0.00 | 0.00 | 0.00 | 95 | 1006.1 |
| 20260509083436 | 77 | 96 | 2.6 | 5.2 | 0.00 | 0.00 | 0.00 | 95 | 1006.2 |
| 20260509082937 | 77 | 93 | 2.6 | 5.2 | 0.00 | 0.00 | 0.00 | 95 | 1006.2 |
| 20260509082434 | 77 | 175 | 2.6 | 3.5 | 0.00 | 0.00 | 0.00 | 95 | 1006.0 |
| 20260509081934 | 77 | 127 | 1.7 | 3.5 | 0.00 | 0.00 | 0.00 | 94 | 1006.4 |
| 20260509081435 | 77 | 130 | 1.7 | 2.6 | 0.00 | 0.00 | 0.00 | 94 | 1006.6 |
| 20260509080934 | 77 | 110 | 1.7 | 4.3 | 0.00 | 0.00 | 0.00 | 94 | 1007.0 |
| 20260509080428 | 77 | 168 | 2.6 | 4.3 | 0.00 | 0.00 | 0.00 | 94 | 1007.0 |
| 20260509075910 | 77 | 114 | 2.6 | 4.3 | 0.00 | 0.00 | 0.00 | 94 | 1006.9 |
| 20260509075409 | 77 | 167 | 2.6 | 4.3 | 0.00 | 0.00 | 0.00 | 94 | 1007.1 |
| 20260509074406 | 77 | 129 | 2.6 | 3.5 | 0.00 | 0.00 | 0.00 | 94 | 1007.2 |
| 20260509073906 | 77 | 120 | 1.7 | 3.5 | 0.00 | 0.00 | 0.00 | 94 | 1007.3 |
| 20260509073406 | 77 | 84 | 2.6 | 3.5 | 0.00 | 0.00 | 0.00 | 94 | 1007.5 |
| 20260509072906 | 77 | 135 | 2.6 | 3.5 | 0.00 | 0.00 | 0.00 | 94 | 1007.3 |
| 20260509072406 | 77 | 135 | 1.7 | 3.5 | 0.00 | 0.00 | 0.00 | 94 | 1007.5 |
| 20260509071906 | 77 | 86 | 1.7 | 3.5 | 0.00 | 0.00 | 0.00 | 93 | 1007.8 |
| 20260509071406 | 78 | 73 | 1.7 | 1.7 | 0.00 | 0.00 | 0.00 | 93 | 1007.8 |
| 20260509070413 | 77 | 112 | 1.7 | 2.6 | 0.00 | 0.00 | 0.00 | 94 | 1008.1 |
| 20260509065906 | 77 | 124 | 1.7 | 2.6 | 0.00 | 0.00 | 0.00 | 94 | 1008.1 |
| 20260509065406 | 77 | 158 | 1.7 | 2.6 | 0.00 | 0.00 | 0.00 | 94 | 1008.1 |
| 20260509064906 | 77 | 88 | 1.7 | 3.5 | 0.00 | 0.00 | 0.00 | 94 | 1008.1 |
| 20260509064351 | 77 | 133 | 1.7 | 3.5 | 0.00 | 0.00 | 0.00 | 94 | 1008.0 |
| 20260509063351 | 77 | 80 | 2.6 | 4.3 | 0.00 | 0.00 | 0.00 | 93 | 1007.6 |
| 20260509062852 | 77 | 110 | 1.7 | 4.3 | 0.00 | 0.00 | 0.00 | 93 | 1007.6 |
| 20260509062352 | 77 | 87 | 1.7 | 3.5 | 0.00 | 0.00 | 0.00 | 93 | 1008.0 |
| 20260509061852 | 77 | 89 | 1.7 | 3.5 | 0.00 | 0.00 | 0.00 | 93 | 1007.9 |
| 20260509061352 | 77 | 155 | 1.7 | 3.5 | 0.00 | 0.00 | 0.00 | 93 | 1007.7 |
| 20260509060852 | 77 | 131 | 1.7 | 3.5 | 0.00 | 0.00 | 0.00 | 93 | 1007.4 |
| 20260509060353 | 77 | 40 | 1.7 | 2.6 | 0.00 | 0.00 | 0.00 | 93 | 1007.6 |
| 20260509055852 | 77 | 53 | 1.7 | 3.5 | 0.00 | 0.00 | 0.00 | 92 | 1007.6 |
| 20260509055353 | 78 | 243 | 1.7 | 3.5 | 0.00 | 0.00 | 0.00 | 92 | 1007.6 |
| 20260509054853 | 78 | 101 | 2.6 | 4.3 | 0.00 | 0.00 | 0.00 | 91 | 1007.4 |
| 20260509053839 | 78 | 70 | 1.7 | 5.2 | 0.00 | 0.00 | 0.00 | 91 | 1007.3 |
| 20260509053340 | 78 | 42 | 2.6 | 7.0 | 0.00 | 0.00 | 0.00 | 91 | 1007.4 |
| 20260509051840 | 78 | 164 | 1.7 | 5.2 | 0.00 | 0.00 | 0.00 | 90 | 1008.1 |
| 20260509051340 | 78 | 87 | 1.7 | 5.2 | 0.00 | 0.00 | 0.00 | 90 | 1008.0 |
| 20260509050840 | 79 | 113 | 1.7 | 5.2 | 0.00 | 0.00 | 0.00 | 90 | 1007.6 |
| 20260509050340 | 79 | 136 | 1.7 | 4.3 | 0.00 | 0.00 | 0.00 | 89 | 1007.7 |
| 20260509045840 | 79 | 156 | 0.9 | 3.5 | 0.00 | 0.00 | 0.00 | 89 | 1008.1 |
| 20260509045339 | 79 | 146 | 0.9 | 1.7 | 0.00 | 0.00 | 0.00 | 89 | 1008.3 |
| 20260509044840 | 79 | 254 | 0.9 | 1.7 | 0.00 | 0.00 | 0.00 | 89 | 1008.3 |
| 20260509043337 | 79 | 115 | 1.7 | 5.2 | 0.00 | 0.00 | 0.00 | 89 | 1007.8 |
| 20260509042837 | 79 | 128 | 1.7 | 5.2 | 0.00 | 0.00 | 0.00 | 88 | 1007.8 |
| 20260509042337 | 79 | 120 | 1.7 | 3.5 | 0.00 | 0.00 | 0.00 | 88 | 1007.6 |
| 20260509041837 | 79 | 148 | 1.7 | 4.3 | 0.00 | 0.00 | 0.00 | 88 | 1007.7 |
| 20260509041338 | 79 | 94 | 1.7 | 4.3 | 0.00 | 0.00 | 0.00 | 88 | 1007.7 |
| 20260509040837 | 79 | 122 | 0.9 | 2.6 | 0.00 | 0.00 | 0.00 | 89 | 1007.8 |
| 20260509035838 | 79 | 143 | 1.7 | 3.5 | 0.00 | 0.00 | 0.00 | 89 | 1007.5 |
| 20260509034837 | 79 | 104 | 1.7 | 4.3 | 0.00 | 0.00 | 0.00 | 89 | 1007.1 |
| 20260509034338 | 79 | 113 | 1.7 | 4.3 | 0.00 | 0.00 | 0.00 | 89 | 1007.2 |
| 20260509033835 | 79 | 99 | 1.7 | 3.5 | 0.00 | 0.00 | 0.00 | 89 | 1007.3 |
| 20260509033335 | 79 | 101 | 1.7 | 3.5 | 0.00 | 0.00 | 0.00 | 89 | 1007.4 |
| 20260509032835 | 79 | 146 | 0.9 | 2.6 | 0.00 | 0.00 | 0.00 | 89 | 1007.4 |
| 20260509032335 | 79 | 174 | 0.9 | 3.5 | 0.00 | 0.00 | 0.00 | 89 | 1007.4 |
| 20260509031836 | 79 | 173 | 0.9 | 3.5 | 0.00 | 0.00 | 0.00 | 89 | 1007.2 |
| 20260509031337 | 79 | 163 | 0.9 | 1.7 | 0.00 | 0.00 | 0.00 | 90 | 1007.3 |
| 20260509030837 | 79 | 162 | 0.9 | 2.6 | 0.00 | 0.00 | 0.00 | 90 | 1007.3 |
| 20260509025837 | 80 | 152 | 0.9 | 1.7 | 0.00 | 0.00 | 0.00 | 90 | 1007.0 |
| 20260509025337 | 80 | 163 | 0.9 | 1.7 | 0.00 | 0.00 | 0.00 | 89 | 1006.9 |
| 20260509024837 | 80 | 157 | 0.9 | 2.6 | 0.00 | 0.00 | 0.00 | 89 | 1006.8 |
| 20260509024337 | 80 | 143 | 0.9 | 2.6 | 0.00 | 0.00 | 0.00 | 89 | 1006.7 |
| 20260509023837 | 80 | 164 | 0.9 | 2.6 | 0.00 | 0.00 | 0.00 | 89 | 1006.6 |
| 20260509023337 | 80 | 107 | 0.9 | 2.6 | 0.00 | 0.00 | 0.00 | 89 | 1006.5 |
| 20260509022833 | 80 | 144 | 0.9 | 2.6 | 0.00 | 0.00 | 0.00 | 89 | 1006.4 |
| 20260509022331 | 80 | 121 | 0.9 | 2.6 | 0.00 | 0.00 | 0.00 | 89 | 1006.4 |
| 20260509021828 | 80 | 137 | 0.9 | 2.6 | 0.00 | 0.00 | 0.00 | 89 | 1006.3 |
| 20260509021327 | 80 | 125 | 0.9 | 2.6 | 0.00 | 0.00 | 0.00 | 89 | 1006.2 |
| 20260509020827 | 80 | 159 | 1.7 | 4.3 | 0.00 | 0.00 | 0.00 | 89 | 1006.3 |
| 20260509020327 | 80 | 106 | 0.9 | 4.3 | 0.00 | 0.00 | 0.00 | 89 | 1006.2 |
| 20260509015825 | 80 | 171 | 1.7 | 3.5 | 0.00 | 0.00 | 0.00 | 89 | 1006.1 |
| 20260509014824 | 80 | 108 | 1.7 | 3.5 | 0.00 | 0.00 | 0.00 | 89 | 1005.9 |
| 20260509014324 | 80 | 89 | 1.7 | 3.5 | 0.00 | 0.00 | 0.00 | 89 | 1005.7 |
| 20260509013824 | 81 | 158 | 1.7 | 5.2 | 0.00 | 0.00 | 0.00 | 89 | 1005.8 |
| 20260509013325 | 81 | 141 | 1.7 | 5.2 | 0.00 | 0.00 | 0.00 | 89 | 1005.5 |
| 20260509012824 | 81 | 114 | 1.7 | 3.5 | 0.00 | 0.00 | 0.00 | 88 | 1005.5 |
| 20260509012325 | 81 | 137 | 0.9 | 3.5 | 0.00 | 0.00 | 0.00 | 88 | 1005.6 |
| 20260509011825 | 81 | 110 | 1.7 | 6.1 | 0.00 | 0.00 | 0.00 | 88 | 1005.5 |
| 20260509011322 | 81 | 142 | 1.7 | 6.1 | 0.00 | 0.00 | 0.00 | 88 | 1005.5 |
| 20260509010822 | 81 | 135 | 1.7 | 4.3 | 0.00 | 0.00 | 0.00 | 88 | 1005.4 |
| 20260509010322 | 81 | 83 | 1.7 | 6.1 | 0.00 | 0.00 | 0.00 | 88 | 1005.2 |
| 20260509005822 | 81 | 125 | 1.7 | 6.1 | 0.00 | 0.00 | 0.00 | 88 | 1005.1 |
| 20260509005322 | 81 | 158 | 1.7 | 5.2 | 0.00 | 0.00 | 0.00 | 88 | 1005.0 |
| 20260509004823 | 81 | 183 | 1.7 | 5.2 | 0.00 | 0.00 | 0.00 | 88 | 1005.0 |
| 20260509004322 | 81 | 132 | 2.6 | 5.2 | 0.00 | 0.00 | 0.00 | 88 | 1004.9 |
| 20260509003820 | 82 | 102 | 1.7 | 6.1 | 0.00 | 0.00 | 0.00 | 87 | 1005.0 |
| 20260509003320 | 82 | 116 | 2.6 | 6.1 | 0.00 | 0.00 | 0.00 | 87 | 1005.0 |
| 20260509002819 | 82 | 77 | 2.6 | 8.7 | 0.00 | 0.00 | 0.00 | 87 | 1004.9 |
| 20260509001820 | 82 | 115 | 2.6 | 5.2 | 0.00 | 0.00 | 0.00 | 86 | 1005.1 |
| 20260509000819 | 82 | 86 | 2.6 | 5.2 | 0.00 | 0.00 | 0.00 | 86 | 1005.2 |
| 20260509000320 | 83 | 131 | 1.7 | 5.2 | 0.00 | 0.00 | 0.00 | 85 | 1005.0 |
| 20260508235820 | 83 | 106 | 1.7 | 5.2 | 0.00 | 0.00 | 0.00 | 84 | 1005.1 |
| 20260508235320 | 83 | 117 | 1.7 | 6.1 | 0.00 | 0.00 | 0.00 | 84 | 1005.2 |
| 20260508234817 | 83 | 65 | 2.6 | 6.1 | 0.00 | 0.00 | 0.00 | 84 | 1005.1 |
| 20260508234318 | 83 | 149 | 2.6 | 6.1 | 0.00 | 0.00 | 0.00 | 84 | 1005.1 |
| 20260508233817 | 83 | 94 | 2.6 | 7.0 | 0.00 | 0.00 | 0.00 | 84 | 1005.1 |
| 20260508233318 | 84 | 122 | 2.6 | 7.0 | 0.00 | 0.00 | 0.00 | 83 | 1005.0 |
| 20260508232817 | 84 | 137 | 2.6 | 7.0 | 0.00 | 0.00 | 0.00 | 83 | 1005.0 |
| 20260508232314 | 84 | 103 | 2.6 | 7.0 | 0.00 | 0.00 | 0.00 | 82 | 1005.0 |
| 20260508231814 | 84 | 136 | 1.7 | 5.2 | 0.00 | 0.00 | 0.00 | 81 | 1005.2 |
| 20260508231315 | 84 | 85 | 1.7 | 7.0 | 0.00 | 0.00 | 0.00 | 81 | 1005.2 |
| 20260508230314 | 85 | 136 | 1.7 | 6.1 | 0.00 | 0.00 | 0.00 | 80 | 1005.1 |
| 20260508225315 | 85 | 127 | 3.5 | 6.1 | 0.00 | 0.00 | 0.00 | 79 | 1005.2 |
| 20260508223309 | 86 | 144 | 2.6 | 7.0 | 0.00 | 0.00 | 0.00 | 77 | 1005.2 |
| 20260508222309 | 86 | 147 | 2.6 | 7.0 | 0.00 | 0.00 | 0.00 | 77 | 1005.3 |
| 20260508221809 | 86 | 150 | 2.6 | 7.0 | 0.00 | 0.00 | 0.00 | 76 | 1005.3 |
| 20260508221309 | 86 | 165 | 2.6 | 8.7 | 0.00 | 0.00 | 0.00 | 77 | 1005.4 |
| 20260508220309 | 87 | 86 | 2.6 | 7.8 | 0.00 | 0.00 | 0.00 | 75 | 1005.5 |
| 20260508215810 | 87 | 105 | 2.6 | 6.1 | 0.00 | 0.00 | 0.00 | 74 | 1005.4 |
| 20260508215310 | 87 | 95 | 2.6 | 6.1 | 0.00 | 0.00 | 0.00 | 74 | 1005.6 |
| 20260508214809 | 87 | 130 | 2.6 | 7.0 | 0.00 | 0.00 | 0.00 | 74 | 1005.6 |
| 20260508214310 | 87 | 98 | 1.7 | 7.0 | 0.00 | 0.00 | 0.00 | 73 | 1005.7 |
| 20260508213810 | 88 | 123 | 1.7 | 5.2 | 0.00 | 0.00 | 0.00 | 73 | 1005.8 |
| 20260508213308 | 88 | 125 | 1.7 | 5.2 | 0.00 | 0.00 | 0.00 | 72 | 1005.8 |
| 20260508212308 | 88 | 149 | 1.7 | 5.2 | 0.00 | 0.00 | 0.00 | 72 | 1005.9 |
| 20260508211811 | 88 | 169 | 1.7 | 5.2 | 0.00 | 0.00 | 0.00 | 72 | 1006.0 |
| 20260508211308 | 88 | 107 | 1.7 | 5.2 | 0.00 | 0.00 | 0.00 | 72 | 1006.1 |
| 20260508210813 | 88 | 89 | 1.7 | 5.2 | 0.00 | 0.00 | 0.00 | 72 | 1006.2 |
| 20260508205811 | 88 | 125 | 1.7 | 6.1 | 0.00 | 0.00 | 0.00 | 71 | 1006.4 |
| 20260508205051 | 88 | 181 | 1.7 | 5.2 | 0.00 | 0.00 | 0.00 | 71 | 1006.5 |
| 20260508204557 | 88 | 135 | 1.7 | 4.3 | 0.00 | 0.00 | 0.00 | 71 | 1006.5 |
| 20260508204042 | 88 | 197 | 1.7 | 5.2 | 0.00 | 0.00 | 0.00 | 70 | 1006.5 |
| 20260508203538 | 89 | 156 | 1.7 | 5.2 | 0.00 | 0.00 | 0.00 | 70 | 1006.7 |
| 20260508203042 | 89 | 125 | 1.7 | 6.1 | 0.00 | 0.00 | 0.00 | 68 | 1006.7 |
| 20260508202538 | 89 | 0 | 1.7 | 6.1 | 0.00 | 0.00 | 0.00 | 69 | 1006.8 |
| 20260508202040 | 88 | 122 | 1.7 | 4.3 | 0.00 | 0.00 | 0.00 | 69 | 1006.9 |
| 20260508201455 | 88 | 193 | 1.7 | 4.3 | 0.00 | 0.00 | 0.00 | 69 | 1006.8 |
| 20260508200951 | 87 | 145 | 1.7 | 6.1 | 0.00 | 0.00 | 0.00 | 70 | 1006.9 |
| 20260508200448 | 88 | 161 | 1.7 | 6.1 | 0.00 | 0.00 | 0.00 | 70 | 1006.9 |
| 20260508195949 | 88 | 177 | 1.7 | 4.3 | 0.00 | 0.00 | 0.00 | 69 | 1007.0 |
| 20260508195449 | 88 | 135 | 1.7 | 4.3 | 0.00 | 0.00 | 0.00 | 69 | 1007.0 |
| 20260508194946 | 88 | 89 | 1.7 | 4.3 | 0.00 | 0.00 | 0.00 | 68 | 1007.1 |
| 20260508194446 | 88 | 134 | 1.7 | 4.3 | 0.00 | 0.00 | 0.00 | 69 | 1007.2 |
| 20260508193946 | 87 | 142 | 1.7 | 5.2 | 0.00 | 0.00 | 0.00 | 70 | 1007.1 |
| 20260508193446 | 87 | 13 | 1.7 | 5.2 | 0.00 | 0.00 | 0.00 | 71 | 1007.2 |
| 20260508192946 | 87 | 64 | 1.7 | 5.2 | 0.00 | 0.00 | 0.00 | 71 | 1007.2 |
| 20260508192446 | 88 | 55 | 2.6 | 7.0 | 0.00 | 0.00 | 0.00 | 71 | 1007.3 |
| 20260508191446 | 89 | 143 | 1.7 | 5.2 | 0.00 | 0.00 | 0.00 | 69 | 1007.5 |
| 20260508190946 | 89 | 209 | 1.7 | 5.2 | 0.00 | 0.00 | 0.00 | 69 | 1007.6 |
| 20260508190447 | 89 | 115 | 1.7 | 5.2 | 0.00 | 0.00 | 0.00 | 67 | 1007.6 |
| 20260508185947 | 89 | 125 | 1.7 | 5.2 | 0.00 | 0.00 | 0.00 | 68 | 1007.7 |
| 20260508184946 | 87 | 171 | 1.7 | 4.3 | 0.00 | 0.00 | 0.00 | 72 | 1007.8 |
| 20260508184443 | 87 | 109 | 1.7 | 6.1 | 0.00 | 0.00 | 0.00 | 72 | 1007.9 |
| 20260508183945 | 87 | 114 | 1.7 | 6.1 | 0.00 | 0.00 | 0.00 | 74 | 1008.0 |
| 20260508183441 | 86 | 73 | 1.7 | 6.1 | 0.00 | 0.00 | 0.00 | 75 | 1008.2 |
| 20260508182941 | 86 | 182 | 1.7 | 6.1 | 0.00 | 0.00 | 0.00 | 75 | 1008.3 |
| 20260508182441 | 86 | 124 | 2.6 | 7.0 | 0.00 | 0.00 | 0.00 | 74 | 1008.3 |
| 20260508181941 | 86 | 138 | 2.6 | 7.0 | 0.00 | 0.00 | 0.00 | 74 | 1008.4 |
| 20260508180941 | 85 | 186 | 1.7 | 4.3 | 0.00 | 0.00 | 0.00 | 76 | 1008.6 |
| 20260508180441 | 85 | 138 | 2.6 | 5.2 | 0.00 | 0.00 | 0.00 | 76 | 1008.7 |
| 20260508175941 | 84 | 17 | 1.7 | 5.2 | 0.00 | 0.00 | 0.00 | 79 | 1008.8 |